This is the latest recevied weather packets stored in our database for station/object EA2MKR. If no packets are shown the sender has not sent any weather packets the latest 10 day(s).
| Time | Temp. | Humidity | Pressure | Rain* | Wind** | Luminosity | Snow |
|---|---|---|---|---|---|---|---|
| 1777752464 | 12.22° C | 95% | 952.6 hPa | 0 mm | - | - | - |
| 1777752288 | 12.22° C | 95% | 952.6 hPa | 0 mm | - | - | - |
| 1777751864 | 12.22° C | 95% | 952.8 hPa | 0 mm | - | - | - |
| 1777751688 | 11.67° C | 95% | 952.6 hPa | 0 mm | - | - | - |
| 1777751264 | 11.67° C | 95% | 952.6 hPa | 0.25 mm | - | - | - |
| 1777750963 | 11.67° C | 95% | 952.4 hPa | 0.25 mm | - | - | - |
| 1777750664 | 11.67° C | 95% | 952.3 hPa | 0.25 mm | - | - | - |
| 1777750363 | 12.22° C | 95% | 952.2 hPa | 0.25 mm | - | - | - |
| 1777750187 | 11.67° C | 95% | 952.1 hPa | 0.51 mm | - | - | - |
| 1777749763 | 12.22° C | 95% | 952.1 hPa | 0.51 mm | - | - | - |
| 1777749587 | 12.22° C | 95% | 952.1 hPa | 0.76 mm | - | - | - |
| 1777749287 | 12.22° C | 95% | 952.1 hPa | 1.27 mm | - | - | - |
| 1777748863 | 12.22° C | 95% | 952.2 hPa | 1.78 mm | - | - | - |
| 1777748562 | 12.22° C | 95% | 952.1 hPa | 2.03 mm | - | - | - |
| 1777748263 | 12.22° C | 94% | 951.9 hPa | 2.54 mm | - | - | - |
| 1777747962 | 12.22° C | 94% | 952 hPa | 3.3 mm | - | - | - |
| 1777747663 | 12.22° C | 94% | 951.9 hPa | 3.81 mm | - | - | - |
| 1777747362 | 12.22° C | 94% | 951.9 hPa | 4.06 mm | - | - | - |
| 1777747062 | 12.22° C | 94% | 951.9 hPa | 4.57 mm | - | - | - |
| 1777746758 | 12.22° C | 94% | 951.8 hPa | 5.33 mm | - | - | - |
| 1777746458 | 12.22° C | 94% | 951.8 hPa | 6.1 mm | - | - | - |
| 1777746283 | 12.22° C | 94% | 951.8 hPa | 7.37 mm | - | - | - |
| 1777745858 | 12.22° C | 94% | 952 hPa | 9.65 mm | - | - | - |
| 1777745559 | 12.22° C | 94% | 952.3 hPa | 9.91 mm | - | - | - |
| 1777745258 | 12.22° C | 94% | 952.4 hPa | 9.14 mm | - | - | - |
* Rain latest hour (hover to see other rain measurements)
** Current wind speed in m/s (hover to see current wind gust speed)